Time,TemperatureF,DewpointF,PressureIn,WindDirection,WindDirectionDegrees,WindSpeedMPH,WindSpeedGustMPH,Humidity,HourlyPrecipIn,Conditions,Clouds,dailyrainin,SoftwareType,DateUTC
2013-05-04 00:02:00,47.0,41.0,30.36,NE,36,1.0,1.0,81,0.00,,,0.00,,2013-05-04 04:02:00,
2013-05-04 00:13:00,47.0,41.0,30.36,NE,36,1.0,1.0,81,0.00,,,0.00,,2013-05-04 04:13:00,
2013-05-04 00:23:00,47.0,41.0,30.36,NE,36,0.0,1.0,81,0.00,,,0.00,,2013-05-04 04:23:00,
2013-05-04 00:33:00,47.0,42.0,30.36,NE,36,0.0,1.0,83,0.00,,,0.00,,2013-05-04 04:33:00,
2013-05-04 00:42:00,47.0,42.0,30.36,NE,36,0.0,1.0,83,0.00,,,0.00,,2013-05-04 04:42:00,
2013-05-04 00:53:00,46.0,42.0,30.36,NE,36,0.0,1.0,86,0.00,,,0.00,,2013-05-04 04:53:00,
2013-05-04 01:02:00,45.0,41.0,30.36,NE,36,0.0,1.0,86,0.00,,,0.00,,2013-05-04 05:02:00,
2013-05-04 01:12:00,45.0,41.0,30.36,NE,36,0.0,1.0,86,0.00,,,0.00,,2013-05-04 05:12:00,
2013-05-04 01:22:00,45.0,41.0,30.36,NE,46,0.0,1.0,87,0.00,,,0.00,,2013-05-04 05:22:00,
2013-05-04 01:32:00,46.0,42.0,30.35,SW,227,0.0,1.0,86,0.00,,,0.00,,2013-05-04 05:32:00,
2013-05-04 01:43:00,46.0,42.0,30.35,SW,227,0.0,1.0,86,0.00,,,0.00,,2013-05-04 05:43:00,
2013-05-04 01:52:00,49.0,43.0,30.34,SSW,208,0.0,2.0,81,0.00,,,0.00,,2013-05-04 05:52:00,
2013-05-04 02:01:00,49.0,43.0,30.34,SW,224,0.0,2.0,81,0.00,,,0.00,,2013-05-04 06:01:00,
2013-05-04 02:11:00,49.0,43.0,30.34,SW,224,0.0,2.0,81,0.00,,,0.00,,2013-05-04 06:11:00,
2013-05-04 02:22:00,48.0,42.0,30.33,SW,223,0.0,1.0,81,0.00,,,0.00,,2013-05-04 06:22:00,
2013-05-04 02:32:00,47.0,42.0,30.33,SW,235,1.0,1.0,83,0.00,,,0.00,,2013-05-04 06:32:00,
2013-05-04 02:42:00,47.0,42.0,30.33,SW,235,1.0,1.0,83,0.00,,,0.00,,2013-05-04 06:42:00,
2013-05-04 02:52:00,47.0,42.0,30.32,SW,224,0.0,1.0,83,0.00,,,0.00,,2013-05-04 06:52:00,
2013-05-04 03:01:00,46.0,41.0,30.32,South,191,0.0,1.0,84,0.00,,,0.00,,2013-05-04 07:01:00,
2013-05-04 03:11:00,46.0,41.0,30.32,South,191,0.0,1.0,84,0.00,,,0.00,,2013-05-04 07:11:00,
2013-05-04 03:22:00,46.0,42.0,30.32,South,190,0.0,1.0,85,0.00,,,0.00,,2013-05-04 07:22:00,
2013-05-04 03:32:00,46.0,42.0,30.32,South,191,0.0,1.0,86,0.00,,,0.00,,2013-05-04 07:32:00,
2013-05-04 03:42:00,46.0,42.0,30.32,South,191,0.0,1.0,86,0.00,,,0.00,,2013-05-04 07:42:00,
2013-05-04 03:52:00,45.0,42.0,30.32,South,190,0.0,1.0,88,0.00,,,0.00,,2013-05-04 07:52:00,
2013-05-04 04:02:00,44.0,42.0,30.32,ENE,66,0.0,1.0,92,0.00,,,0.00,,2013-05-04 08:02:00,
2013-05-04 04:11:00,44.0,42.0,30.32,ENE,66,0.0,1.0,92,0.00,,,0.00,,2013-05-04 08:11:00,
2013-05-04 04:21:00,43.0,41.0,30.32,ENE,66,0.0,1.0,94,0.00,,,0.00,,2013-05-04 08:21:00,
2013-05-04 04:32:00,44.0,42.0,30.31,ENE,66,0.0,1.0,94,0.00,,,0.00,,2013-05-04 08:32:00,
2013-05-04 04:42:00,44.0,42.0,30.31,ENE,66,0.0,1.0,94,0.00,,,0.00,,2013-05-04 08:42:00,
2013-05-04 04:52:00,45.0,43.0,30.32,ENE,66,0.0,0.0,92,0.00,,,0.00,,2013-05-04 08:52:00,
2013-05-04 05:02:00,45.0,42.0,30.32,ENE,65,0.0,0.0,90,0.00,,,0.00,,2013-05-04 09:02:00,
2013-05-04 05:11:00,45.0,42.0,30.32,ENE,65,0.0,0.0,90,0.00,,,0.00,,2013-05-04 09:11:00,
2013-05-04 05:22:00,44.0,42.0,30.32,ENE,66,0.0,0.0,91,0.00,,,0.00,,2013-05-04 09:22:00,
2013-05-04 05:32:00,44.0,41.0,30.32,ENE,67,0.0,1.0,90,0.00,,,0.00,,2013-05-04 09:32:00,
2013-05-04 05:42:00,44.0,41.0,30.32,ENE,67,0.0,1.0,90,0.00,,,0.00,,2013-05-04 09:42:00,
2013-05-04 05:53:00,45.0,42.0,30.32,ENE,67,0.0,1.0,89,0.00,,,0.00,,2013-05-04 09:53:00,
2013-05-04 06:03:00,45.0,42.0,30.32,ENE,67,1.0,1.0,88,0.00,,,0.00,,2013-05-04 10:03:00,
2013-05-04 06:12:00,45.0,42.0,30.32,ENE,67,1.0,1.0,88,0.00,,,0.00,,2013-05-04 10:12:00,
2013-05-04 06:23:00,44.0,40.0,30.32,ENE,70,1.0,2.0,87,0.00,,,0.00,,2013-05-04 10:23:00,
2013-05-04 06:33:00,44.0,41.0,30.32,ENE,71,1.0,2.0,89,0.00,,,0.00,,2013-05-04 10:33:00,
2013-05-04 06:42:00,44.0,41.0,30.32,ENE,71,1.0,2.0,89,0.00,,,0.00,,2013-05-04 10:42:00,
2013-05-04 06:53:00,47.0,43.0,30.32,ENE,71,0.0,1.0,86,0.00,,,0.00,,2013-05-04 10:53:00,
2013-05-04 07:02:00,48.0,43.0,30.33,ENE,71,0.0,0.0,83,0.00,,,0.00,,2013-05-04 11:02:00,
2013-05-04 07:11:00,48.0,43.0,30.33,ENE,71,0.0,0.0,83,0.00,,,0.00,,2013-05-04 11:11:00,
2013-05-04 07:21:00,48.0,43.0,30.33,ENE,68,1.0,1.0,84,0.00,,,0.00,,2013-05-04 11:21:00,
2013-05-04 07:32:00,46.0,43.0,30.34,NE,50,0.0,2.0,88,0.00,,,0.00,,2013-05-04 11:32:00,
2013-05-04 08:03:00,48.0,44.0,30.33,NE,50,0.0,0.0,87,0.00,,,0.00,,2013-05-04 12:03:00,
2013-05-04 08:14:00,49.0,45.0,30.34,NE,36,0.0,2.0,85,0.00,,,0.00,,2013-05-04 12:14:00,
2013-05-04 08:30:00,50.0,45.0,30.34,NNE,28,0.0,1.0,83,0.00,,,0.00,,2013-05-04 12:30:00,
2013-05-04 08:37:00,52.0,46.0,30.34,WSW,255,0.0,1.0,80,0.00,,,0.00,,2013-05-04 12:37:00,
2013-05-04 08:52:00,54.0,47.0,30.34,NNE,28,1.0,5.0,76,0.00,,,0.00,,2013-05-04 12:52:00,
2013-05-04 09:01:00,54.0,46.0,30.34,NW,324,1.0,2.0,75,0.00,,,0.00,,2013-05-04 13:01:00,
2013-05-04 09:11:00,54.0,46.0,30.34,NW,324,1.0,2.0,75,0.00,,,0.00,,2013-05-04 13:11:00,
2013-05-04 09:22:00,56.0,47.0,30.34,WNW,301,0.0,3.0,72,0.00,,,0.00,,2013-05-04 13:22:00,
2013-05-04 09:32:00,57.0,47.0,30.33,NE,47,0.0,4.0,70,0.00,,,0.00,,2013-05-04 13:32:00,
2013-05-04 09:42:00,57.0,47.0,30.33,NE,47,0.0,4.0,70,0.00,,,0.00,,2013-05-04 13:42:00,
2013-05-04 09:53:00,56.0,46.0,30.34,ENE,63,0.0,4.0,70,0.00,,,0.00,,2013-05-04 13:53:00,
2013-05-04 10:02:00,58.0,47.0,30.34,ESE,107,1.0,5.0,68,0.00,,,0.00,,2013-05-04 14:02:00,
2013-05-04 10:11:00,58.0,47.0,30.34,ESE,107,1.0,5.0,68,0.00,,,0.00,,2013-05-04 14:11:00,
2013-05-04 10:21:00,59.0,48.0,30.34,NE,49,2.0,5.0,66,0.00,,,0.00,,2013-05-04 14:21:00,
2013-05-04 10:32:00,59.0,47.0,30.33,NE,47,2.0,4.0,64,0.00,,,0.00,,2013-05-04 14:32:00,
2013-05-04 10:42:00,59.0,47.0,30.33,NE,47,2.0,4.0,64,0.00,,,0.00,,2013-05-04 14:42:00,
2013-05-04 10:52:00,59.0,47.0,30.33,North,353,1.0,6.0,64,0.00,,,0.00,,2013-05-04 14:52:00,
2013-05-04 11:02:00,61.0,48.0,30.33,SSW,204,2.0,4.0,62,0.00,,,0.00,,2013-05-04 15:02:00,
2013-05-04 11:12:00,61.0,48.0,30.33,SSW,204,2.0,4.0,62,0.00,,,0.00,,2013-05-04 15:12:00,
2013-05-04 11:22:00,61.0,48.0,30.32,WNW,284,1.0,6.0,62,0.00,,,0.00,,2013-05-04 15:22:00,
2013-05-04 11:33:00,62.0,47.0,30.32,NNE,29,2.0,6.0,57,0.00,,,0.00,,2013-05-04 15:33:00,
2013-05-04 11:43:00,62.0,47.0,30.32,NNE,29,2.0,6.0,57,0.00,,,0.00,,2013-05-04 15:43:00,
2013-05-04 11:53:00,63.0,45.0,30.32,North,355,3.0,8.0,52,0.00,,,0.00,,2013-05-04 15:53:00,
2013-05-04 12:03:00,63.0,44.0,30.32,North,4,3.0,8.0,50,0.00,,,0.00,,2013-05-04 16:03:00,
2013-05-04 12:12:00,63.0,44.0,30.32,North,4,3.0,8.0,50,0.00,,,0.00,,2013-05-04 16:12:00,
2013-05-04 12:22:00,63.0,42.0,30.31,East,85,4.0,9.0,46,0.00,,,0.00,,2013-05-04 16:22:00,
2013-05-04 12:33:00,64.0,42.0,30.31,NNE,28,3.0,8.0,44,0.00,,,0.00,,2013-05-04 16:33:00,
2013-05-04 12:42:00,64.0,42.0,30.31,NNE,28,3.0,8.0,44,0.00,,,0.00,,2013-05-04 16:42:00,
2013-05-04 12:52:00,65.0,39.0,30.30,West,273,2.0,6.0,38,0.00,,,0.00,,2013-05-04 16:52:00,
2013-05-04 13:02:00,66.0,39.0,30.30,NNE,26,1.0,6.0,37,0.00,,,0.00,,2013-05-04 17:02:00,
2013-05-04 13:12:00,66.0,39.0,30.30,NNE,26,1.0,6.0,37,0.00,,,0.00,,2013-05-04 17:12:00,
2013-05-04 13:22:00,67.0,38.0,30.30,NNE,18,4.0,8.0,34,0.00,,,0.00,,2013-05-04 17:22:00,
2013-05-04 13:32:00,67.0,36.0,30.30,NE,38,4.0,6.0,32,0.00,,,0.00,,2013-05-04 17:32:00,
2013-05-04 13:42:00,67.0,36.0,30.30,NE,38,4.0,6.0,32,0.00,,,0.00,,2013-05-04 17:42:00,
2013-05-04 13:52:00,67.0,38.0,30.29,WSW,253,2.0,6.0,34,0.00,,,0.00,,2013-05-04 17:52:00,
2013-05-04 14:01:00,69.0,38.0,30.29,WSW,258,3.0,5.0,32,0.00,,,0.00,,2013-05-04 18:01:00,
2013-05-04 14:12:00,69.0,38.0,30.29,WSW,258,3.0,5.0,32,0.00,,,0.00,,2013-05-04 18:12:00,
2013-05-04 14:22:00,69.0,30.0,30.28,East,81,2.0,7.0,23,0.00,,,0.00,,2013-05-04 18:22:00,
2013-05-04 14:32:00,70.0,30.0,30.28,NE,43,2.0,6.0,23,0.00,,,0.00,,2013-05-04 18:32:00,
2013-05-04 14:42:00,70.0,30.0,30.28,NE,43,2.0,6.0,23,0.00,,,0.00,,2013-05-04 18:42:00,
2013-05-04 14:52:00,68.0,29.0,30.27,NE,56,4.0,9.0,23,0.00,,,0.00,,2013-05-04 18:52:00,
2013-05-04 15:01:00,70.0,27.0,30.27,NNW,341,3.0,6.0,20,0.00,,,0.00,,2013-05-04 19:01:00,
2013-05-04 15:11:00,70.0,27.0,30.27,NNW,341,3.0,6.0,20,0.00,,,0.00,,2013-05-04 19:11:00,
2013-05-04 15:21:00,70.0,29.0,30.26,ENE,76,3.0,6.0,22,0.00,,,0.00,,2013-05-04 19:21:00,
2013-05-04 15:32:00,70.0,27.0,30.26,ESE,104,2.0,10.0,20,0.00,,,0.00,,2013-05-04 19:32:00,
2013-05-04 15:42:00,70.0,27.0,30.26,ESE,104,2.0,10.0,20,0.00,,,0.00,,2013-05-04 19:42:00,
2013-05-04 15:52:00,71.0,30.0,30.25,East,93,2.0,5.0,22,0.00,,,0.00,,2013-05-04 19:52:00,
2013-05-04 16:02:00,71.0,30.0,30.24,SW,234,3.0,6.0,22,0.00,,,0.00,,2013-05-04 20:02:00,
2013-05-04 16:11:00,71.0,30.0,30.24,SW,234,3.0,6.0,22,0.00,,,0.00,,2013-05-04 20:11:00,
2013-05-04 16:22:00,73.0,33.0,30.24,North,353,1.0,7.0,23,0.00,,,0.00,,2013-05-04 20:22:00,
2013-05-04 16:32:00,71.0,28.0,30.24,North,2,2.0,7.0,20,0.00,,,0.00,,2013-05-04 20:32:00,
2013-05-04 16:42:00,71.0,28.0,30.24,North,2,2.0,7.0,20,0.00,,,0.00,,2013-05-04 20:42:00,
2013-05-04 16:52:00,72.0,36.0,30.23,West,260,2.0,5.0,27,0.00,,,0.00,,2013-05-04 20:52:00,
2013-05-04 17:02:00,72.0,34.0,30.22,WSW,249,1.0,5.0,25,0.00,,,0.00,,2013-05-04 21:02:00,
2013-05-04 17:12:00,72.0,34.0,30.22,WSW,249,1.0,5.0,25,0.00,,,0.00,,2013-05-04 21:12:00,
2013-05-04 17:22:00,72.0,35.0,30.23,WSW,255,1.0,7.0,26,0.00,,,0.00,,2013-05-04 21:22:00,
2013-05-04 17:33:00,73.0,35.0,30.23,WSW,247,2.0,5.0,25,0.00,,,0.00,,2013-05-04 21:33:00,
2013-05-04 17:43:00,73.0,35.0,30.23,WSW,247,2.0,5.0,25,0.00,,,0.00,,2013-05-04 21:43:00,
2013-05-04 17:53:00,72.0,33.0,30.24,West,270,1.0,3.0,24,0.00,,,0.00,,2013-05-04 21:53:00,
2013-05-04 18:03:00,72.0,34.0,30.23,NW,326,2.0,4.0,25,0.00,,,0.00,,2013-05-04 22:03:00,
2013-05-04 18:12:00,72.0,34.0,30.23,NW,326,2.0,4.0,25,0.00,,,0.00,,2013-05-04 22:12:00,
2013-05-04 18:22:00,71.0,36.0,30.23,WNW,295,1.0,3.0,28,0.00,,,0.00,,2013-05-04 22:22:00,
2013-05-04 18:33:00,70.0,37.0,30.23,ESE,118,2.0,4.0,30,0.00,,,0.00,,2013-05-04 22:33:00,
2013-05-04 18:42:00,70.0,37.0,30.23,ESE,118,2.0,4.0,30,0.00,,,0.00,,2013-05-04 22:42:00,
2013-05-04 18:52:00,69.0,39.0,30.23,West,270,1.0,3.0,33,0.00,,,0.00,,2013-05-04 22:52:00,
2013-05-04 19:02:00,68.0,39.0,30.24,WNW,298,2.0,4.0,35,0.00,,,0.00,,2013-05-04 23:02:00,
2013-05-04 19:12:00,68.0,39.0,30.24,WNW,298,2.0,4.0,35,0.00,,,0.00,,2013-05-04 23:12:00,
2013-05-04 19:22:00,66.0,39.0,30.24,WNW,294,1.0,5.0,37,0.00,,,0.00,,2013-05-04 23:22:00,
2013-05-04 19:32:00,64.0,38.0,30.24,West,263,2.0,4.0,38,0.00,,,0.00,,2013-05-04 23:32:00,
2013-05-04 19:42:00,64.0,38.0,30.24,West,263,2.0,4.0,38,0.00,,,0.00,,2013-05-04 23:42:00,
2013-05-04 19:52:00,61.0,36.0,30.24,West,266,1.0,4.0,39,0.00,,,0.00,,2013-05-04 23:52:00,
2013-05-04 20:02:00,58.0,34.0,30.23,NW,309,2.0,6.0,41,0.00,,,0.00,,2013-05-05 00:02:00,
2013-05-04 20:11:00,58.0,34.0,30.23,NW,309,2.0,6.0,41,0.00,,,0.00,,2013-05-05 00:11:00,
2013-05-04 20:22:00,56.0,34.0,30.23,WSW,242,2.0,4.0,44,0.00,,,0.00,,2013-05-05 00:22:00,
2013-05-04 20:32:00,55.0,35.0,30.25,WNW,283,1.0,4.0,46,0.00,,,0.00,,2013-05-05 00:32:00,
2013-05-04 20:42:00,55.0,35.0,30.25,WNW,283,1.0,4.0,46,0.00,,,0.00,,2013-05-05 00:42:00,
2013-05-04 20:52:00,54.0,35.0,30.26,NE,40,2.0,5.0,48,0.00,,,0.00,,2013-05-05 00:52:00,
2013-05-04 21:01:00,53.0,36.0,30.27,NNW,336,2.0,5.0,52,0.00,,,0.00,,2013-05-05 01:01:00,
2013-05-04 21:11:00,53.0,36.0,30.27,NNW,336,2.0,5.0,52,0.00,,,0.00,,2013-05-05 01:11:00,
2013-05-04 21:21:00,51.0,36.0,30.27,West,272,2.0,5.0,56,0.00,,,0.00,,2013-05-05 01:21:00,
2013-05-04 21:32:00,50.0,36.0,30.27,WNW,298,1.0,4.0,59,0.00,,,0.00,,2013-05-05 01:32:00,
2013-05-04 21:42:00,50.0,36.0,30.27,WNW,298,1.0,4.0,59,0.00,,,0.00,,2013-05-05 01:42:00,
2013-05-04 21:52:00,49.0,36.0,30.27,West,269,2.0,6.0,61,0.00,,,0.00,,2013-05-05 01:52:00,
2013-05-04 22:02:00,48.0,36.0,30.28,WSW,249,2.0,6.0,62,0.00,,,0.00,,2013-05-05 02:02:00,
2013-05-04 22:12:00,48.0,36.0,30.28,WSW,249,2.0,6.0,62,0.00,,,0.00,,2013-05-05 02:12:00,
2013-05-04 22:22:00,47.0,35.0,30.28,West,264,2.0,5.0,64,0.00,,,0.00,,2013-05-05 02:22:00,
2013-05-04 22:32:00,46.0,35.0,30.29,WSW,243,1.0,6.0,65,0.00,,,0.00,,2013-05-05 02:32:00,
2013-05-04 22:42:00,46.0,35.0,30.29,WSW,243,1.0,6.0,65,0.00,,,0.00,,2013-05-05 02:42:00,
2013-05-04 22:52:00,45.0,35.0,30.29,West,278,0.0,4.0,67,0.00,,,0.00,,2013-05-05 02:52:00,
2013-05-04 23:01:00,44.0,34.0,30.29,NNE,18,0.0,2.0,68,0.00,,,0.00,,2013-05-05 03:01:00,
2013-05-04 23:11:00,44.0,34.0,30.29,NNE,18,0.0,2.0,68,0.00,,,0.00,,2013-05-05 03:11:00,
2013-05-04 23:22:00,43.0,34.0,30.29,ENE,63,1.0,3.0,69,0.00,,,0.00,,2013-05-05 03:22:00,
2013-05-04 23:33:00,43.0,34.0,30.29,ENE,60,0.0,4.0,70,0.00,,,0.00,,2013-05-05 03:33:00,
2013-05-04 23:42:00,43.0,34.0,30.29,ENE,60,0.0,4.0,70,0.00,,,0.00,,2013-05-05 03:42:00,
2013-05-04 23:53:00,43.0,35.0,30.29,ENE,64,0.0,2.0,72,0.00,,,0.00,,2013-05-05 03:53:00,